GW0580 Weather Reports


time (UTC)temp
C
wind
direction
speed
KPH
gust
KPH
rain 1hr
cm
rain 24hr
cm
rain mn
cm
humidity
%
barometer
mb
20260510054439 8 206 6.4 9.7 0.00 0.00 0.00 76 1003.2
20260510053441 8 199 8.0 12.9 0.00 0.00 0.00 76 1002.6
20260510052439 8 232 11.3 20.9 0.00 0.00 0.00 75 1002.5
20260510051440 8 234 11.3 17.7 0.00 0.00 0.00 75 1002.2
20260510050439 8 227 11.3 25.7 0.00 0.00 0.00 75 1002.0
20260510044438 9 219 11.3 17.7 0.00 0.00 0.00 74 1001.4
20260510043441 9 236 8.0 12.9 0.00 0.00 0.00 74 1001.4
20260510042440 9 219 9.7 20.9 0.00 0.00 0.00 73 1001.1
20260510041439 9 204 11.3 22.5 0.00 0.00 0.00 73 1000.8
20260510040439 9 234 8.0 12.9 0.00 0.00 0.00 73 1000.7
20260510035439 10 229 8.0 11.3 0.00 0.00 0.00 72 1000.6
20260510034439 10 229 9.7 14.5 0.00 0.00 0.00 71 1000.5
20260510033439 10 244 11.3 19.3 0.00 0.00 0.00 70 1000.2
20260510032439 10 219 8.0 12.9 0.00 0.00 0.00 69 999.7
20260510031438 10 221 4.8 11.3 0.00 0.00 0.00 68 999.4
20260510025440 10 221 8.0 19.3 0.00 0.00 0.00 67 998.9
20260510024440 10 218 8.0 12.9 0.00 0.00 0.00 67 998.8
20260510023439 10 221 8.0 17.7 0.00 0.00 0.00 67 998.4
20260510021438 11 208 4.8 9.7 0.00 0.00 0.00 67 998.0
20260510020438 11 212 8.0 17.7 0.00 0.00 0.00 67 997.7
20260510015440 11 234 6.4 14.5 0.00 0.00 0.00 68 997.5
20260510014439 11 227 6.4 16.1 0.00 0.00 0.00 69 997.3
20260510012438 11 214 6.4 11.3 0.00 0.00 0.00 70 996.8
20260510011438 11 202 6.4 16.1 0.00 0.00 0.00 71 996.8
20260510010440 11 234 8.0 19.3 0.00 0.00 0.00 71 996.7
20260510004456 11 218 9.7 19.3 0.00 0.00 0.00 70 996.7
20260510003438 11 227 9.7 16.1 0.00 0.00 0.00 70 996.7
20260510002439 11 236 8.0 12.9 0.00 0.00 0.00 70 996.5
20260510001439 12 199 9.7 12.9 0.00 0.00 0.00 69 996.6
20260510000441 12 216 9.7 22.5 0.00 0.00 0.00 68 996.6
20260509233439 12 219 11.3 29.0 0.00 0.00 0.00 68 996.6
20260509231439 13 232 12.9 24.1 0.00 0.00 0.00 69 996.4
20260509230440 13 234 12.9 19.3 0.00 0.00 0.00 68 995.9
20260509225442 13 227 11.3 19.3 0.00 0.00 0.00 69 995.7
20260509224439 13 227 11.3 20.9 0.00 0.00 0.00 69 995.2
20260509223438 13 206 8.0 19.3 0.00 0.00 0.00 69 994.7
20260509222438 13 163 3.2 9.7 0.00 0.00 0.00 67 994.1
20260509220440 13 184 1.6 6.4 0.00 0.00 0.00 65 993.2
20260509215440 13 167 3.2 8.0 0.00 0.00 0.00 64 993.1
20260509212438 13 216 9.7 17.7 0.00 0.00 0.00 61 992.7
20260509211439 12 253 4.8 9.7 0.00 0.00 0.00 61 992.2
20260509210438 12 34 3.2 6.4 0.00 0.00 0.00 60 991.8
20260509205441 12 30 3.2 4.8 0.00 0.00 0.00 60 991.9
20260509204440 12 43 3.2 4.8 0.00 0.00 0.00 59 991.7
20260509203440 12 49 4.8 6.4 0.00 0.00 0.00 58 991.4
20260509202439 12 30 3.2 6.4 0.00 0.00 0.00 57 991.1
20260509200440 13 36 3.2 6.4 0.00 0.00 0.00 55 991.0
20260509195438 14 270 1.6 3.2 0.00 0.00 0.00 55 990.9
20260509193439 15 135 1.6 6.4 0.00 0.00 0.00 54 990.5
20260509192440 15 197 1.6 4.8 0.00 0.00 0.00 54 990.3
20260509191439 15 114 6.4 12.9 0.00 0.00 0.00 53 990.4
20260509190439 15 148 4.8 9.7 0.00 0.00 0.00 53 990.0
20260509185439 15 150 6.4 9.7 0.00 0.00 0.00 53 990.1
20260509184438 15 150 6.4 16.1 0.00 0.00 0.00 54 989.7
20260509183438 15 159 3.2 8.0 0.00 0.00 0.00 54 989.8
20260509180439 15 221 4.8 12.9 0.00 0.00 0.00 54 989.5
20260509175438 15 199 3.2 6.4 0.00 0.00 0.00 55 989.5
20260509174438 15 133 4.8 9.7 0.00 0.00 0.00 55 989.2
20260509173440 15 135 1.6 4.8 0.00 0.00 0.00 55 989.1
20260509172438 15 210 8.0 14.5 0.00 0.00 0.00 55 989.2
20260509170439 15 232 3.2 12.9 0.00 0.00 0.00 55 989.0
20260509165438 15 154 6.4 11.3 0.00 0.00 0.00 55 989.0
20260509164439 14 229 6.4 12.9 0.00 0.00 0.00 55 989.3
20260509163438 14 186 1.6 3.2 0.00 0.00 0.00 56 989.0
20260509162438 15 171 1.6 6.4 0.00 0.00 0.00 55 988.8
20260509161441 15 128 4.8 8.0 0.00 0.00 0.00 56 989.2
20260509160441 15 112 4.8 8.0 0.00 0.00 0.00 56 989.0
20260509155438 15 193 4.8 16.1 0.00 0.00 0.00 56 988.9
20260509154441 14 182 8.0 17.7 0.00 0.00 0.00 56 989.0
20260509153441 14 165 4.8 8.0 0.00 0.00 0.00 56 989.1
20260509151439 14 139 4.8 9.7 0.00 0.00 0.00 57 989.2
20260509150439 13 152 3.2 8.0 0.00 0.00 0.00 57 989.2
20260509144439 13 111 6.4 17.7 0.00 0.00 0.00 57 989.3
20260509143439 13 66 8.0 14.5 0.00 0.00 0.00 57 989.4
20260509142440 13 66 6.4 9.7 0.00 0.00 0.00 57 989.8
20260509141439 13 111 9.7 17.7 0.00 0.00 0.00 57 989.9
20260509140443 13 88 3.2 6.4 0.00 0.00 0.00 57 989.9
20260509135439 13 156 1.6 3.2 0.00 0.00 0.00 57 990.0
20260509133439 14 103 6.4 16.1 0.00 0.00 0.00 56 990.0
20260509132438 14 75 3.2 9.7 0.00 0.00 0.00 57 990.3
20260509130439 14 197 6.4 27.4 0.00 0.00 0.00 56 990.7
20260509124438 15 141 4.8 14.5 0.00 0.00 0.00 56 990.7
20260509123440 15 167 8.0 16.1 0.00 0.00 0.00 56 991.0
20260509121441 14 139 6.4 9.7 0.00 0.00 0.00 57 991.3
20260509115444 14 163 8.0 17.7 0.00 0.00 0.00 58 991.5
20260509113440 14 36 11.3 19.3 0.00 0.00 0.00 59 991.6
20260509112440 14 135 8.0 17.7 0.00 0.00 0.00 60 991.5
20260509111439 14 96 4.8 20.9 0.00 0.00 0.00 61 991.7
20260509110439 14 154 9.7 12.9 0.00 0.00 0.00 62 991.4
20260509105439 13 56 11.3 25.7 0.00 0.00 0.00 63 991.7
20260509104439 13 86 6.4 29.0 0.00 0.00 0.00 64 991.5
20260509103438 13 101 4.8 16.1 0.00 0.00 0.00 66 991.3
20260509102440 13 193 6.4 14.5 0.00 0.00 0.00 67 991.4
20260509101439 13 122 9.7 20.9 0.00 0.00 0.00 70 991.4
20260509100440 13 84 11.3 25.7 0.00 0.00 0.00 73 991.2
20260509095440 12 64 11.3 16.1 0.00 0.00 0.00 75 991.4
20260509093439 11 101 9.7 24.1 0.00 0.00 0.00 79 991.4
20260509091439 10 246 4.8 11.3 0.00 0.00 0.00 81 991.2
20260509090439 10 315 1.6 4.8 0.00 0.00 0.00 81 991.0
20260509085438 10 240 3.2 4.8 0.00 0.00 0.00 81 991.2
20260509084441 9 56 1.6 4.8 0.00 0.00 0.00 80 990.9
20260509081448 10 66 0.0 3.2 0.00 0.00 0.00 80 991.0
20260509080438 10 32 1.6 3.2 0.00 0.00 0.00 80 991.1
20260509074440 10 45 3.2 6.4 0.00 0.00 0.00 80 991.0
20260509073438 10 28 3.2 6.4 0.00 0.00 0.00 79 990.9
20260509072438 10 38 4.8 9.7 0.00 0.00 0.00 79 990.9
20260509071440 10 21 3.2 4.8 0.00 0.00 0.00 79 990.7
20260509070439 11 45 1.6 3.2 0.00 0.00 0.00 79 990.3
20260509065438 11 45 3.2 6.4 0.00 0.00 0.00 79 990.4
20260509064439 11 45 0.0 3.2 0.00 0.00 0.00 79 990.4
20260509063439 11 144 0.0 3.2 0.00 0.00 0.00 79 990.3
20260509062438 11 182 1.6 4.8 0.00 0.00 0.00 79 990.4
20260509061440 11 58 0.0 3.2 0.00 0.00 0.00 78 990.4
20260509060439 12 172 1.6 6.4 0.00 0.00 0.00 78 990.4
20260509055439 12 52 0.0 1.6 0.00 0.00 0.00 79 990.4